Weather History for Robinson, IL

Change the Weather History Date:

Sunday, April 14, 2013

  Actual Average (KLWV) Record (KLWV)
Temperature  
Mean Temperature 58 °F 56 °F  
Max Temperature 77 °F 66 °F 88 °F (2006)
Min Temperature 40 °F 45 °F 30 °F (1997)
Degree Days  
Heating Degree Days 6 10  
Month to date heating degree days 175  
Since 1 July heating degree days 4472  
Cooling Degree Days 0 1  
Month to date cooling degree days 8  
Year to date cooling degree days 10  
Growing Degree Days 8 (Base 50)    
Moisture  
Dew Point 41 °F    
Average Humidity 50    
Maximum Humidity 86    
Minimum Humidity 25    
Precipitation  
Precipitation 0.00 in 0.12 in 1.61 in (1983)
Month to date precipitation 1.57  
Year to date precipitation 9.39  
Sea Level Pressure  
Sea Level Pressure 29.88 in    
Wind  
Wind Speed 9 mph (SE)    
Max Wind Speed 21 mph    
Max Gust Speed 29 mph    
Visibility 10 miles    
Events Rain    
T = Trace of Precipitation, MM = Missing Value Source: NWS Daily Summary

Daily Weather History Graph

Daily Weather History Graph

Search for Another Location

Airport:

Trip Planner

Search our weather history database for the weather conditions in past years. The results will help you decide how hot, cold, wet, or windy it might be!

Date:

Astronomy

Apr. 14, 2013 Rise Set
Actual Time 6:15 AM CDT 7:27 PM CDT
Civil Twilight 5:47 AM CDT 7:54 PM CDT
Nautical Twilight 5:14 AM CDT 8:27 PM CDT
Astronomical Twilight 4:40 AM CDT 9:02 PM CDT
Moon 8:53 AM CDT (4/14) 11:38 PM CDT (4/14)
Length of Visible Light 14h 07m
Length of Day
13h 12m
Waxing Crescent, 17% of the Moon is Illuminated
Apr 14
Waxing Crescent
Apr 18
First Quarter
Apr 25
Full
May 2
Last Quarter
May 9
New

Hourly Weather History & Observations

Time (CDT) Temp. Windchill Dew Point Humidity Pressure Visibility Wind Dir Wind Speed Gust Speed Precip Events Conditions
12:15 AM 41.5 °F - 36.5 °F 82% 30.00 in 10.0 mi Calm Calm - N/A   Clear
12:35 AM 41.4 °F - 37.4 °F 86% 29.99 in 10.0 mi Calm Calm - N/A   Clear
12:55 AM 40.3 °F 35.5 °F 36.0 °F 85% 29.98 in 10.0 mi ESE 6.9 mph - N/A   Clear
1:15 AM 42.8 °F 38.6 °F 36.5 °F 78% 29.98 in 10.0 mi ESE 6.9 mph - N/A   Clear
1:35 AM 45.3 °F 43.0 °F 37.4 °F 74% 29.98 in 10.0 mi ESE 4.6 mph - N/A   Mostly Cloudy
1:55 AM 45.9 °F 42.9 °F 38.8 °F 76% 30.01 in 10.0 mi NNW 5.8 mph - N/A   Overcast
2:15 AM 46.0 °F - 39.7 °F 79% 30.00 in 10.0 mi Calm Calm - N/A Rain Light Rain
2:35 AM 45.9 °F - 41.0 °F 83% 30.01 in 10.0 mi Calm Calm - N/A   Overcast
2:55 AM 46.9 °F - 40.5 °F 78% 29.99 in 10.0 mi ESE 5.8 mph - N/A   Overcast
3:15 AM 47.3 °F - 41.5 °F 80% 30.00 in 10.0 mi Calm Calm - N/A   Overcast
3:35 AM 47.3 °F - 42.3 °F 83% 30.00 in 10.0 mi Calm Calm - N/A   Overcast
3:55 AM 48.2 °F - 41.5 °F 78% 29.99 in 10.0 mi ESE 4.6 mph - N/A   Overcast
4:15 AM 48.6 °F - 40.5 °F 74% 29.97 in 10.0 mi ESE 6.9 mph - N/A   Overcast
4:35 AM 49.5 °F - 39.4 °F 68% 29.96 in 10.0 mi ESE 8.1 mph - N/A   Light Drizzle
4:55 AM 50.0 °F - 39.0 °F 66% 29.95 in 10.0 mi East 6.9 mph - N/A   Overcast
5:15 AM 48.7 °F - 39.6 °F 71% 29.94 in 10.0 mi East 5.8 mph - N/A   Overcast
5:35 AM 49.5 °F - 39.6 °F 69% 29.93 in 10.0 mi ESE 6.9 mph - N/A   Overcast
5:55 AM 50.0 °F - 38.5 °F 65% 29.93 in 10.0 mi ESE 9.2 mph - N/A   Scattered Clouds
6:15 AM 49.1 °F - 38.7 °F 67% 29.93 in 10.0 mi ESE 9.2 mph - N/A   Scattered Clouds
6:35 AM 51.6 °F - 38.5 °F 61% 29.95 in 10.0 mi ESE 10.4 mph - N/A   Mostly Cloudy
7:15 AM 52.5 °F - 39.4 °F 61% 29.95 in 10.0 mi ESE 8.1 mph - N/A   Overcast
7:35 AM 53.1 °F - 39.7 °F 61% 29.95 in 10.0 mi ESE 9.2 mph - N/A   Overcast
7:55 AM 53.4 °F - 40.1 °F 61% 29.95 in 10.0 mi ESE 6.9 mph - N/A   Mostly Cloudy
8:15 AM 55.0 °F - 40.8 °F 59% 29.95 in 10.0 mi ESE 9.2 mph - N/A   Scattered Clouds
8:35 AM 56.3 °F - 40.5 °F 55% 29.94 in 10.0 mi ESE 12.7 mph - N/A   Clear
8:55 AM 57.4 °F - 40.8 °F 54% 29.94 in 10.0 mi SE 11.5 mph - N/A   Clear
9:15 AM 59.2 °F - 41.2 °F 51% 29.93 in 10.0 mi ESE 11.5 mph - N/A   Clear
9:35 AM 60.6 °F - 41.5 °F 49% 29.92 in 10.0 mi ESE 9.2 mph - N/A   Clear
9:55 AM 62.1 °F - 41.9 °F 48% 29.92 in 10.0 mi SE 10.4 mph - N/A   Clear
10:15 AM 64.4 °F - 42.4 °F 45% 29.92 in 10.0 mi SE 12.7 mph - N/A   Clear
10:35 AM 66.4 °F - 41.9 °F 41% 29.91 in 10.0 mi SSE 11.5 mph - N/A   Clear
10:55 AM 67.5 °F - 41.0 °F 38% 29.90 in 10.0 mi SSE 9.2 mph - N/A   Clear
11:15 AM 68.7 °F - 40.8 °F 36% 29.89 in 10.0 mi SSE 15.0 mph - N/A   Clear
11:35 AM 70.0 °F - 41.2 °F 35% 29.88 in 10.0 mi SE 13.8 mph - N/A   Clear
11:55 AM 71.2 °F - 41.2 °F 34% 29.87 in 10.0 mi SE 12.7 mph - N/A   Clear
12:15 PM 72.0 °F - 41.5 °F 33% 29.87 in 10.0 mi SE 13.8 mph - N/A   Clear
12:35 PM 73.0 °F - 39.7 °F 30% 29.86 in 10.0 mi SSE 13.8 mph - N/A   Clear
12:55 PM 74.3 °F - 38.8 °F 28% 29.86 in 10.0 mi SSE 13.8 mph - N/A   Clear
1:15 PM 74.7 °F - 39.9 °F 29% 29.85 in 10.0 mi SSE 16.1 mph 23.0 mph N/A   Clear
1:35 PM 75.0 °F - 39.2 °F 27% 29.84 in 10.0 mi SSE 15.0 mph 20.7 mph N/A   Clear
1:55 PM 75.2 °F - 38.7 °F 27% 29.83 in 10.0 mi SE 16.1 mph - N/A   Clear
2:15 PM 75.2 °F - 39.0 °F 27% 29.82 in 10.0 mi SE 13.8 mph 21.9 mph N/A   Clear
2:35 PM 75.4 °F - 39.0 °F 27% 29.81 in 10.0 mi SSE 16.1 mph 19.6 mph N/A   Clear
3:15 PM 76.5 °F - 39.7 °F 27% 29.80 in 10.0 mi SE 19.6 mph - N/A   Clear
3:35 PM 77.2 °F - 39.0 °F 25% 29.78 in 10.0 mi SSE 16.1 mph 25.3 mph N/A   Clear
3:55 PM 76.6 °F - 39.6 °F 26% 29.78 in 10.0 mi SSE 18.4 mph 21.9 mph N/A   Clear
4:15 PM 76.1 °F - 39.7 °F 27% 29.78 in 10.0 mi SSE 18.4 mph 23.0 mph N/A   Clear
4:35 PM 76.6 °F - 40.1 °F 27% 29.78 in 10.0 mi SSE 20.7 mph 25.3 mph N/A   Clear
4:55 PM 76.6 °F - 40.6 °F 27% 29.77 in 10.0 mi SSE 19.6 mph 25.3 mph N/A   Clear
5:15 PM 75.9 °F - 40.5 °F 28% 29.78 in 10.0 mi SE 17.3 mph 28.8 mph N/A   Clear
5:35 PM 75.6 °F - 40.3 °F 28% 29.77 in 10.0 mi SE 15.0 mph 23.0 mph N/A   Clear
5:55 PM 75.0 °F - 41.5 °F 30% 29.77 in 10.0 mi SE 19.6 mph 26.5 mph N/A   Clear
6:15 PM 74.3 °F - 40.3 °F 29% 29.77 in 10.0 mi SE 20.7 mph - N/A   Clear
6:35 PM 73.2 °F - 41.0 °F 31% 29.77 in 10.0 mi SE 17.3 mph 23.0 mph N/A   Clear
6:55 PM 72.1 °F - 41.2 °F 33% 29.78 in 10.0 mi SE 13.8 mph - N/A   Clear
7:15 PM 70.0 °F - 43.2 °F 38% 29.77 in 10.0 mi SE 13.8 mph - N/A   Clear
7:35 PM 67.5 °F - 44.6 °F 44% 29.78 in 10.0 mi SE 11.5 mph - N/A   Clear
7:55 PM 67.8 °F - 43.9 °F 42% 29.79 in 10.0 mi SE 12.7 mph 18.4 mph N/A   Clear
8:15 PM 69.1 °F - 41.9 °F 37% 29.80 in 10.0 mi SSE 19.6 mph 25.3 mph N/A   Clear
8:35 PM 67.6 °F - 42.8 °F 41% 29.81 in 10.0 mi SSE 19.6 mph 26.5 mph N/A   Clear
8:55 PM 67.5 °F - 43.5 °F 42% 29.82 in 10.0 mi South 17.3 mph 28.8 mph N/A   Clear
9:15 PM 65.5 °F - 43.7 °F 45% 29.83 in 10.0 mi SSE 17.3 mph 23.0 mph N/A   Clear
9:35 PM 64.9 °F - 43.7 °F 46% 29.84 in 10.0 mi SSE 20.7 mph 27.6 mph N/A   Clear
9:55 PM 64.2 °F - 44.4 °F 49% 29.84 in 10.0 mi SSE 18.4 mph 27.6 mph N/A   Clear
10:15 PM 63.5 °F - 45.0 °F 51% 29.84 in 10.0 mi SSE 18.4 mph 26.5 mph N/A   Clear
10:35 PM 63.1 °F - 44.8 °F 51% 29.84 in 10.0 mi SSE 18.4 mph 26.5 mph N/A   Clear
10:55 PM 62.6 °F - 44.8 °F 52% 29.85 in 10.0 mi SSE 16.1 mph 24.2 mph N/A   Clear
11:15 PM 62.6 °F - 44.6 °F 52% 29.84 in 10.0 mi SSE 17.3 mph 27.6 mph N/A   Clear
11:35 PM 61.9 °F - 45.0 °F 54% 29.85 in 10.0 mi SSE 16.1 mph 27.6 mph N/A   Clear
11:55 PM 61.7 °F - 45.1 °F 55% 29.84 in 10.0 mi SSE 18.4 mph 25.3 mph N/A   Clear